CZ-6 R/B (49061 NORAD) Tracking and Keplerian Element Data

This shows tracking and keplerian element data for the satellite.

Feedback or suggestion? Click here.




ElementValue
Catalog49061
NameCZ-6 R/B
Epoch Orbit353
Epoch Day240.86366642
Epoch Year2021
RAAN50.576
Inclination89.0359
Eccentricity0.0217648
Argument of Perigee333.096
Mean Anonmoly25.9087
Mean Motion14.46074368
Decay Rate1.46E-06
L11 49061U 21070C 21240.86366642 .00000146 00000-0 26833-4 0 9997
L22 49061 89.0359 50.5760 0217648 333.0960 25.9087 14.46074368 3536



Live tracking and technical data element details for CZ-6 R/B (NORAD 49061). CZ-6 R/B can be tracked NOW for your location showing map with azimuth and elevation plus other details from your city location.







IsCatalogInMostPopularTable: catalog: 49061, numindb: 64
Update: records affected: 1



GetName: 49061 CZ-6 R/B

Hit Count: updated at: Mon, 05 Jun 2023 00:24:53 GMT